This demonstration page uses our WeatherBlox Daily Observations layout. Learn more.

Left ArrowRight Arrow

41.86663, -103.66717

Hourly Observations for July 19, 2017

Temp ( °F °C ) Dew Point ( °F °C ) Humidity (%) Winds ( mph kmh ) Pressure ( in mb ) Visibility ( mi km ) Precip ( " mm )
12:53 am 00:53 Clear 73 22.8 62 16.7 69 69 ESE 7 11 29.94 1014 10 16 0.00 0.00
1:53 am 01:53 Clear 71 21.7 62 16.7 73 73 ESE 7 11 29.93 1013 10 16 0.00 0.00
2:53 am 02:53 Clear 69 20.6 62 16.7 78 78 ESE 10 17 29.91 1013 10 16 0.00 0.00
3:53 am 03:53 Clear 67 19.4 62 16.7 84 84 ESE 13 20 29.91 1013 10 16 0.00 0.00
4:53 am 04:53 Clear 67 19.4 61 16.1 81 81 ESE 12 19 29.93 1014 10 16 0.00 0.00
5:53 am 05:53 Sunny 66 18.9 60 15.6 81 81 ESE 9 15 29.93 1014 10 16 0.00 0.00
6:53 am 06:53 Sunny 67 19.4 61 16.1 81 81 E 8 13 29.94 1014 10 16 0.00 0.00
7:53 am 07:53 Sunny 74 23.3 61 16.1 64 64 E 10 17 29.92 1013 10 16 0.00 0.00
8:53 am 08:53 Sunny 77 25 63 17.2 62 62 ESE 10 17 29.92 1013 10 16 0.00 0.00
9:53 am 09:53 Sunny 83 28.3 65 18.3 55 55 E 12 19 29.89 1012 10 16 0.00 0.00
10:53 am 10:53 Sunny 88 31.1 66 18.9 48 48 E 8 13 29.88 1012 10 16 0.00 0.00
11:53 am 11:53 Sunny 97 36.1 57 13.9 26 26 SSE 10 17 29.84 1011 10 16 0.00 0.00
12:53 pm 12:53 Sunny 99 37.2 55 12.8 23 23 N 3 6 29.82 1010 10 16 0.00 0.00
1:53 pm 13:53 Sunny 101 38.3 50 10 18 18 S 7 11 29.81 1009 10 16 0.00 0.00
2:53 pm 14:53 Sunny 102 38.9 47 8.3 15 15 N 5 7 29.80 1009 10 16 0.00 0.00
3:53 pm 15:53 Sunny 104 40 39 3.9 11 11 undefined N/A 29.78 1009 10 16 0.00 0.00
4:53 pm 16:53 Sunny 102 38.9 46 7.8 15 15 E 8 13 29.76 1008 10 16 0.00 0.00
5:53 pm 17:53 Sunny 102 38.9 39 3.9 11 11 ESE 5 7 29.75 1007 10 16 0.00 0.00
6:53 pm 18:53 Sunny 94 34.4 55 12.8 27 27 NE 17 28 29.76 1008 10 16 0.00 0.00
7:53 pm 19:53 Sunny 91 32.8 60 15.6 35 35 ENE 20 31 29.80 1009 10 16 0.00 0.00
8:53 pm 20:53 Clear 86 30 59 15 40 40 E 12 19 29.82 1010 10 16 0.00 0.00
9:53 pm 21:53 Mostly Cloudy with Nearby Thunderstorms 78 25.6 58 14.4 50 50 W 21 33 29.93 1014 10 16 0.00 0.00
10:12 pm 22:12 Cloudy with Thunderstorms 73 23 63 17 69 69 WNW 14 22 29.91 1013 10 16 0.00 0.00
10:45 pm 22:45 Windy with Storms Likely 69 20.6 64 17.8 84 84 N 21 33 29.94 1014 9 14 0.00 0.00
10:53 pm 22:53 Cloudy with Thunderstorms 69 20.6 64 17.8 84 84 N 18 30 29.98 1015 10 16 0.01 0.25
11:06 pm 23:06 Mostly Cloudy with Nearby Thunderstorms 68 20 64 18 88 88 NNW 15 24 29.94 1014 10 16 0.00 0.00
11:24 pm 23:24 Partly Cloudy with Light Rain 70 21 63 17 78 78 N 18 30 29.94 1014 10 16 0.00 0.00
11:53 pm 23:53 Mostly Cloudy with Light Rain 68 20 64 17.8 87 87 N 12 19 29.98 1015 8 13 0.04 1.02

Powered by AerisWeather